This demonstration page uses our WeatherBlox Daily Observations layout. Learn more.

Left ArrowRight Arrow

Hourly Observations for September 28, 2019

Temp ( °F °C ) Dew Point ( °F °C ) Humidity (%) Winds ( mph kmh ) Pressure ( in mb ) Visibility ( mi km ) Precip ( " mm )
12:53 am 00:53 Partly Cloudy 82 27.8 66 18.9 58 58 SSE 8 13 29.97 1015 10 16 0.00 0.00
1:53 am 01:53 Mostly Cloudy 79 26.1 68 20 69 69 NW 5 7 30.00 1016 10 16 0.00 0.00
2:53 am 02:53 Clear 77 25 68 20 74 74 Calm 30.01 1016 10 16 0.00 0.00
3:53 am 03:53 Clear 74 23.3 69 20.6 85 85 Calm 29.99 1016 10 16 0.00 0.00
4:53 am 04:53 Clear 72 22.2 68 20 87 87 WNW 3 6 30.00 1016 10 16 0.00 0.00
5:53 am 05:53 Clear 72 22.2 68 20 87 87 ENE 5 7 30.02 1017 10 16 0.00 0.00
6:53 am 06:53 Clear 73 22.8 69 20.6 87 87 NE 3 6 30.04 1017 10 16 0.00 0.00
7:53 am 07:53 Sunny 72 22.2 69 20.6 91 91 Calm 30.08 1019 10 16 0.00 0.00
8:53 am 08:53 Sunny 76 24.4 69 20.6 79 79 VRB 5 7 30.10 1019 10 16 0.00 0.00
9:53 am 09:53 Sunny 78 25.6 69 20.6 74 74 SSE 3 6 30.11 1020 10 16 0.00 0.00
10:53 am 10:53 Sunny 81 27.2 70 21.1 69 69 VRB 3 6 30.12 1020 10 16 0.00 0.00
11:53 am 11:53 Sunny 83 28.3 70 21.1 65 65 VRB 3 6 30.13 1020 10 16 0.00 0.00
12:53 pm 12:53 Mostly Sunny 87 30.6 70 21.1 57 57 VRB 6 9 30.12 1020 10 16 0.00 0.00
1:53 pm 13:53 Partly Cloudy 89 31.7 71 21.7 55 55 VRB 6 9 30.10 1019 10 16 0.00 0.00
2:53 pm 14:53 Sunny 89 31.7 70 21.1 53 53 NE 5 7 30.08 1019 10 16 0.00 0.00
3:53 pm 15:53 Mostly Sunny 90 32.2 69 20.6 50 50 E 5 7 30.07 1018 10 16 0.00 0.00
4:53 pm 16:53 Sunny 90 32.2 69 20.6 50 50 NE 8 13 30.07 1018 10 16 0.00 0.00
6:53 pm 18:53 Sunny 88 31.1 70 21.1 55 55 N 3 6 30.07 1018 10 16 0.00 0.00
7:53 pm 19:53 Mostly Cloudy with Nearby Thunderstorms 79 26.1 67 19.4 67 67 S 13 20 30.12 1020 10 16 0.00 0.00
8:21 pm 20:21 Cloudy with Light Rain 77 25 67 19.4 71 71 SSE 16 26 30.09 1019 10 16 0.00 0.00
8:34 pm 20:34 Mostly Cloudy with Nearby Thunderstorms 77 25 67 19.4 71 71 VRB 5 7 30.09 1019 10 16 0.00 0.00
8:53 pm 20:53 Mostly Clear with Nearby Thunderstorms 75 23.9 67 19.4 76 76 NW 5 7 30.11 1020 10 16 0.00 0.00
9:12 pm 21:12 Clear 75 23.9 67 19.4 76 76 N 7 11 30.12 1020 10 16 0.00 0.00
9:53 pm 21:53 Clear 75 23.9 67 19.4 76 76 Calm 30.11 1020 10 16 0.00 0.00
10:53 pm 22:53 Mostly Clear 77 25 68 20 74 74 Calm 30.11 1020 10 16 0.00 0.00
11:53 pm 23:53 Clear 75 23.9 68 20 79 79 Calm 30.12 1020 10 16 0.00 0.00

Powered by AerisWeather